Starlink 11297

operational
NORAD ID: 61060 Int'l Des: 2024-164 Owner: SPXS Country: US Constellation: starlink
LEOCIRCULAR

Über Starlink 11297

Beschreibung wird geladen...

Live-Position

3D-Globus wird geladen...

Nächste Überflüge

Höhenverlauf

Altitude vs Time

uPlot chart will show altitude changes over time

Zweizeiliger Elementsatz

1 61060U 24164L 26036.20115430 -.00000015 00000-0 47328-5 0 9999
2 61060 53.1594 111.6117 0001056 91.2594 268.8545 15.69710846 80319
Epoch: 5. Feb. 2026 • Age: 22 hours

Aktueller Status

Höhe 373.8 km
Geschwindigkeit 7.68 km/s
Subsatellitenpunkt -40.97°S, 142.8°E
Startdatum 13. Sept. 2024
Alter 1.3 years
Typ internet

Technische Details

Klassifizierung Payload
Masse 960.00 kg
Trockenmasse 910.00 kg
Gesamtmasse 960.00 kg
Länge 0.30 m
Durchmesser 4.10 m
Spannweite 29.00 m
Form Box + pan
Hersteller SPXS
Bus-Typ Starlink V2MD
Phasenstatus In Orbit
Besitzer/Staat SPXS/US

Große Konstellationen

Loading constellations...